TITAN 3C TRANSTAGE DEB, 35503

Orbit data source: Space-Track

TITAN 3C TRANSTAGE DEB, 35503 is space debris in HEO originally from a launch on Tue, 21 Dec 1965 UTC launched from the Air Force Eastern Test Range (AFETR). Debris objects in space refer to the collection of defunct objects orbiting the Earth. Examples of debris include non-operational satellites, rocket bodies, and fragments generated from explosions, collisions, or faulty payload assembly.

Loading next visibility...
Identifier
35503, 1965-108DJ
Orbit
HEO
Country
Flag of USUS
Related business
Manufacturer
Unknown
Mission
Spacecraft
Bus & Motor
Unknown
Mass
Unknown
Launch date (UTC)
1965-12-21 (60 years ago)
Launch vehicle
Unknown
Launch site
Air Force Eastern Test Range (AFETR)
Object type
Payload
Rocket body
Debris
Shape & HBR
Unknown shape, 1.1 m
Radar Cross Section
Small (<0.1 m²)

Expand to show TLE details & history
Last TLE update: 19 hours ago

TLE from 19 hours ago
0 TITAN 3C TRANSTAGE DEB
1 35503U 65108DJ  26134.68742896 -.00000629  00000-0 -12661-1 0  9998
2 35503  26.5353 310.9246 6803592  85.8133 359.8525  2.60467181206356
Epoch: 2026-05-14T16:29Z
TLE epoch observation values (Epoch: 2026-05-14T16:29:53.862Z)
Latitude
26.53781°
Longitude
-85.05772°
Altitude
730.277 km
Speed
9.713 km/s
True Right ascension
02h 19m 23s
True Declination
26° 24' 00"
Sunlit
Object was in daylight at epoch
Visualization orbit readout
Latitude
Unknown
Longitude
Unknown
Altitude
Unknown
Speed
Unknown
Apparent Right ascension
Unknown
Apparent Declination
Unknown
Sunlit
N/A
Visualization observer readout
Local Sidereal Time
19:46:16
Azimuth
Unknown
Elevation
Unknown
Doppler factor
Unknown
Orbital elements
Apogee altitude
31,122.382 km
Perigee altitude
755.276 km
Semi-major axis
22,316.966 km
Eccentricity
0.68036
Inclination
26.5353°
RAAN
310.9246°
Arg. of periapsis
85.8133°
True anomaly
358.94201°
Mean anomaly
359.8525°
Eccentric anomaly
359.53856°
Mean motion
0.65101 °/min
Orbital period
552.98 mins
BSTAR
-0.012661
Loading maneuver chart data...
Computing Atmospheric mass density...

Documentation

Showing up to 5 results
|